Regional Weather Roundup
Issued by NWS

Home | Current Version | Previous Version | Graphics & Text | Print | Product List | Glossary On
Versions: 1 2 3 4 5 6 7 8 9 10 11 12 13 14 15 16 17 18 19 20 21 22 23 24 25 26 27 28 29 30 31 32 33 34 35 36 37 38 39 40 41 42 43 44 45 46 47 48 49 50
000
ASUS43 KIND 251909
RWRIN

WEATHER ROUNDUP FOR INDIANA
NATIONAL WEATHER SERVICE INDIANAPOLIS IN
300 PM EDT SAT APR 25 2015

NOTE: "FAIR" INDICATES FEW OR NO CLOUDS BELOW 12,000 FEET WITH NO
SIGNIFICANT WEATHER AND/OR OBSTRUCTIONS TO VISIBILITY.

* - STATION DOES NOT REPORT WEATHER SUCH AS PRECIPITATION OR FOG.

+ - STATION NOT QUALITY CONTROLLED BY THE NATIONAL WEATHER SERVICE.
    USE DATA WITH CAUTION...ESPECIALLY DEWPOINT AND RELATIVE
    HUMIDITY OBSERVATIONS.

INZ001>003-010>013-019-020-252000-
NORTHWEST INDIANA

CITY           SKY/WX    TMP DP  RH WIND       PRES   REMARKS
GARY /AIRPORT/ LGT RAIN  45  39  81 E9        29.79S FOG
KNOX *+        CLOUDY    43  36  75 CALM      29.80R
LA PORTE +     RAIN      46  44  90 S3        29.81R
MICHIGAN CITY+ RAIN      45  37  76 CALM      29.81R
MONTICELLO +   RAIN      43  42  98 NE14      29.72F
RENSSELAER +   LGT RAIN  43  43 100 E23       29.71
VALPARAISO     LGT RAIN  45  42  89 E14       29.77F

$$

LMZ046-743>745-252000-
SOUTHERN LAKE MICHIGAN

STATION/POSITION TIME  TEMP    WIND        PRES    WAVE
                       AIR SEA DIR/SP/G            HT
                 (UTC) (F)     (DEG/KT/KT) (MB)    (FT)
BURNS HARBOR     1900   45      90/  6/  8 1009.8S
MICHIGAN CITY    1900   44      80/  4/  5   N/A
5NW MICH CITY    1900   45 45  130/  6/  8   N/A     2

$$

INZ004-005-014>016-021>024-252000-
NORTH CENTRAL INDIANA

CITY           SKY/WX    TMP DP  RH WIND       PRES   REMARKS
ELKHART        LGT RAIN  46  41  81 E14       29.77F
GOSHEN         LGT RAIN  47  41  80 E17       29.75F
LOGANSPORT +   RAIN      43  41  93 E7        29.75R
PERU/GRISSOM   LGT RAIN  45  41  87 E15       29.72R
ROCHESTER +    LGT RAIN  46  45  93 E7G18     29.78R
SOUTH BEND     LGT RAIN  46  41  82 E9        29.79S
WARSAW +       RAIN      45  43  93 E12       29.75R

$$

INZ006>009-017-018-025>027-252000-
NORTHEAST INDIANA

CITY           SKY/WX    TMP DP  RH WIND       PRES   REMARKS
ANGOLA *+      MOSUNNY   45  39  81 E14       29.78S
AUBURN +       LGT RAIN  45  41  87 E12G18    29.77F
FORT WAYNE     RAIN      45  42  89 E16       29.73F FOG
HUNTINGTON +   LGT RAIN  44  42  91 E10G16    29.72F

$$

INZ028-029-035-036-043>045-051>053-252000-
WEST CENTRAL INDIANA

CITY           SKY/WX    TMP DP  RH WIND       PRES   REMARKS
CRAWFORDSVL +  LGT SNOW  44  40  86 NE15      29.66R
GREENCASTLE +  CLOUDY    46  43  87 E14       29.63R FOG
LAFAYETTE      RAIN      45  43  93 NE17      29.67S FOG
TERRE HAUTE    CLOUDY    51  49  92 E13       29.59F FOG

$$

INZ030>032-037>040-046>048-054>057-064-065-252000-
CENTRAL INDIANA

CITY           SKY/WX    TMP DP  RH WIND       PRES   REMARKS
ANDERSON       RAIN      41  39  93 E13G21    29.71S
CP ATTERBURY + LGT RAIN  48  46  93 E15       29.63F
COLUMBUS       LGT RAIN  48  46  93 NE10      29.64R FOG
FISHERS *+     CLOUDY    43  43 100 E7        29.68
FRANKFORT +    RAIN      44  44 100 N10G26    29.69R
GREENWOOD *+   CLOUDY    45  41  87 E14G20    29.65F
INDIANAPOLIS   LGT RAIN  46  43  89 E17G25    29.62F FOG
-EAGLE CREEK   LGT RAIN  45  42  89 E13G23    29.65R
KOKOMO *+      CLOUDY    45  39  81 E18       29.71F
MARION +       RAIN      43  39  85 E14       29.73R
MT COMFORT *+  CLOUDY    43 N/A N/A E23       29.64F
SHELBYVILLE    TSTM      46  42  86 NE20      29.65F FOG
ZIONSVILLE +   LGT RAIN  45  41  87 E14G20    29.66F

$$

INZ033-034-041-042-049-050-058-059-252000-
EAST CENTRAL INDIANA

CITY           SKY/WX    TMP DP  RH WIND       PRES   REMARKS
MUNCIE         RAIN      42  39  89 E16       29.72S FOG

$$

INZ060-061-067>069-081>083-085>088-252000-
SOUTHWEST INDIANA

CITY           SKY/WX    TMP DP  RH WIND       PRES   REMARKS
EVANSVILLE     PTSUNNY   72  59  63 W12       29.51F
HUNTINGBURG *+ CLOUDY    57  55  94 NE8       29.54S
WASHINGTON +   LGT RAIN  55  51  87 E6        29.54F

$$

INZ062-063-066-070>080-084-089>092-252000-
SOUTH CENTRAL AND SOUTHEAST INDIANA

CITY           SKY/WX    TMP DP  RH WIND       PRES   REMARKS
BLOOMINGTON    LGT RAIN  51  50  96 E9        29.60R FOG
MADISON *+     CLOUDY    50  46  87 E10       29.61F
NORTH VERNON + CLOUDY    50  50 100 E8        29.62S FOG
SEYMOUR +      CLOUDY    52  52 100 E9        29.60S FOG

$$



USA.gov is the U.S. government's official web portal to all federal, state and local government web resources and services.